{"data":{"norad_id":57235,"intl_designator":"2023-094T","name":"STARLINK-6360","alt_names":[],"object_type":"PAYLOAD","status":"ACTIVE","operator":null,"country":"US","launch_date":"2023-07-07","launch_site_code":"AFWTR","launch_vehicle":null,"mission":null,"orbit_class":"UNKNOWN","rcs_meters":null,"size_class":null,"mass_kg":null,"dimensions":null,"purposes":["comms"],"wikipedia_slug":null,"has_3d_model":false,"image_url":null,"decayed_at":null,"tle_current":{"epoch":"2026-05-24T20:24:16.834176Z","epoch_age_seconds":84166,"freshness":"FRESH","line1":"1 57235U 23094T   26144.85019484  .00001714  00000+0  71829-4 0  9999","line2":"2 57235  43.0028 320.5708 0001519 278.6491  81.4189 15.27573199158766","mean_motion":15.27573199,"eccentricity":0.0001519,"inclination_deg":43.0028,"raan_deg":320.5708,"arg_perigee_deg":278.6491,"mean_anomaly_deg":81.4189,"bstar":7.1829e-5,"rev_number":15876,"period_min":94.267168404281,"perigee_km":482.02724349447,"apogee_km":484.11167801725,"semimajor_km":6861.2064607559,"source":"CELESTRAK","updated_at":"2026-05-25T13:38:18.255296Z"}}}